Theta_e
337 332 328 324 311 310 303 306 312 310 313 319 321 318 317 320 317 313 337 339 339 340 344 346 347 348 349 347 348 347 345 343 341 340 340 340 340 341 342 342 344 341 339 340 336 336 336 337 336
332 328 327 319 308 303 303 309 308 312 318 321 321 320 319 319 328 330 333 339 338 340 342 344 345 347 348 348 348 346 343 341 339 339 339 338 338 341 342 341 342 340 337 338 336 336 335 335 335
331 325 320 314 308 302 303 309 312 317 320 320 318 323 322 320 329 332 338 340 339 339 343 345 345 347 347 347 348 346 345 343 340 339 340 337 337 341 341 341 343 339 336 336 336 335 334 334 334
327 327 321 310 306 308 306 310 314 317 318 321 321 316 325 330 329 336 340 340 338 337 341 343 346 346 347 346 347 346 344 343 341 339 338 337 337 341 340 340 341 340 336 335 335 334 334 334 334
328 322 311 309 309 310 310 312 316 315 315 317 320 314 319 330 335 338 339 339 337 337 340 343 344 345 345 346 345 346 344 342 341 340 337 336 337 340 340 339 339 339 335 334 333 334 334 334 334
319 319 308 306 309 312 313 314 316 316 315 316 315 314 319 333 334 335 338 338 338 336 338 342 338 340 343 344 344 344 344 342 340 339 337 337 336 338 338 338 338 337 336 334 333 333 333 333 333
316 313 308 309 308 310 310 316 315 316 314 314 319 311 322 329 335 337 337 337 336 336 337 339 342 339 337 340 341 342 342 341 340 339 338 337 337 337 337 337 336 336 336 334 333 333 332 332 332
319 315 308 310 308 308 310 314 315 315 314 322 322 311 314 328 334 335 336 335 335 334 334 336 340 341 342 342 334 336 338 339 339 337 335 333 333 333 333 333 336 335 334 334 334 332 331 331 330
322 308 305 308 309 311 311 312 315 318 316 319 322 321 325 333 334 331 330 332 331 331 332 334 336 338 340 340 335 331 331 333 333 332 329 328 332 332 330 329 333 334 334 332 332 332 330 330 328
314 307 307 313 315 313 313 311 313 313 314 316 319 325 329 332 329 326 326 327 327 327 329 332 335 337 338 337 337 337 336 336 337 337 335 335 332 331 330 326 329 331 331 331 329 328 329 326 328
314 307 311 313 316 317 315 311 312 311 310 315 315 320 327 326 326 327 328 327 324 325 327 329 332 334 336 336 337 337 336 335 335 336 336 335 333 332 330 330 328 329 324 328 327 326 327 328 328
310 313 312 314 317 317 315 317 310 312 314 316 316 321 327 325 325 328 328 327 323 323 325 328 327 331 334 335 334 334 333 334 334 334 335 334 333 333 330 328 328 330 327 327 328 328 328 328 327
311 311 312 315 315 317 317 315 315 314 315 317 316 317 324 325 327 330 330 330 326 322 324 327 326 327 330 332 332 331 331 332 333 333 333 332 331 331 330 329 327 327 327 327 326 326 326 326 326
311 311 311 313 314 315 313 314 315 317 321 318 317 317 320 324 326 328 330 330 328 325 324 327 327 327 328 329 329 328 329 330 332 331 331 332 331 330 329 329 328 326 326 325 325 325 324 323 324
311 306 309 310 312 311 315 309 311 316 319 316 314 316 318 321 325 326 329 330 331 329 326 326 328 329 327 327 328 328 328 328 327 329 330 331 330 329 327 327 327 327 327 326 325 326 325 323 322
306 306 299 306 308 310 311 301 309 315 315 316 317 318 317 319 323 326 329 330 332 331 328 326 327 328 328 327 328 328 327 326 326 326 328 329 329 328 327 326 325 327 327 326 325 324 323 323 322
302 295 297 300 308 307 307 302 307 312 313 314 316 318 318 318 321 325 328 330 331 332 330 328 326 326 328 328 327 328 328 327 326 326 326 327 328 328 327 328 328 326 325 325 324 324 323 322 322
294 295 298 297 304 306 304 303 308 310 312 312 314 316 319 319 320 324 326 329 331 332 332 331 329 326 326 328 328 328 328 328 327 326 326 326 327 327 328 329 328 329 326 324 325 324 324 323 322
300 298 297 300 304 303 302 303 305 308 309 309 311 315 316 319 322 324 326 328 330 331 331 331 329 328 327 326 326 326 325 326 326 327 327 327 327 328 329 329 328 328 326 325 325 325 323 323 324
299 298 297 300 303 301 301 301 305 307 308 309 310 311 315 318 320 322 324 327 328 329 331 331 331 329 329 329 328 327 326 327 327 328 328 328 327 328 328 329 328 328 327 326 327 326 324 324 326
298 296 297 296 300 302 300 298 301 306 308 310 311 312 313 316 317 318 321 324 328 327 329 330 331 331 331 331 330 328 327 326 325 326 327 328 329 329 328 329 330 330 329 326 327 327 325 322 325
293 301 299 298 295 289 300 289 298 301 303 306 309 310 311 313 316 317 320 320 325 327 328 329 331 331 332 332 330 327 323 322 325 326 329 330 330 329 329 330 330 330 330 329 329 329 327 325 321
296 301 299 298 296 293 293 290 296 301 299 303 306 309 311 312 313 314 316 321 322 326 327 329 330 331 331 332 330 328 326 327 329 329 329 330 332 330 329 330 330 330 330 331 330 329 328 328 323
303 299 299 298 296 285 292 291 293 297 299 302 306 308 310 311 313 314 316 318 322 325 328 329 329 329 330 331 331 329 328 327 328 328 329 331 331 331 331 331 331 331 331 330 329 328 326 325 324
299 294 285 283 283 283 294 290 294 300 303 305 306 308 310 312 313 315 315 316 318 321 323 328 329 327 329 330 330 329 329 329 329 329 330 330 330 330 330 331 331 331 331 329 328 327 326 325 323
295 293 286 280 283 286 293 287 294 304 306 307 308 309 309 310 312 314 314 317 318 319 321 325 327 327 328 329 329 330 330 330 330 330 331 331 331 331 332 330 331 331 331 330 329 326 325 324 323
294 290 296 288 287 285 289 294 300 304 304 305 306 308 309 311 311 312 312 313 316 318 320 320 324 326 327 328 329 329 330 330 330 331 332 332 332 331 332 331 330 331 330 329 327 324 323 322 322
297 299 288 287 281 281 286 289 292 299 302 304 305 307 309 311 312 312 313 312 313 315 318 320 320 323 326 327 328 329 330 330 331 331 331 331 331 331 330 330 330 329 329 329 328 324 322 321 321
292 290 291 290 287 283 282 288 299 300 303 303 305 305 306 307 308 310 309 310 311 314 313 315 316 317 321 325 327 327 328 329 330 330 330 330 331 330 329 328 328 328 328 328 326 323 321 320 320
296 293 292 287 284 287 286 289 302 303 302 302 301 301 302 302 302 303 304 304 306 306 308 307 310 313 317 322 325 326 327 327 327 328 328 329 329 329 328 327 327 327 326 326 324 322 320 320 318
Wind_Speed
17 11 6 5 6 4 5 5 3 6 5 5 4 5 9 8 11 5 8 7 13 10 12 11 7 11 14 15 13 14 13 13 12 13 12 12 11 11 14 14 14 15 16 15 15 15 14 14 15
15 10 3 5 5 4 7 4 1 4 8 3 4 2 3 7 8 8 10 8 12 10 9 11 9 11 14 14 14 14 13 13 12 13 12 12 11 11 14 13 14 14 14 13 14 14 14 13 13
14 4 5 6 3 7 6 2 5 5 4 3 3 1 4 5 5 10 10 12 11 9 12 10 8 10 13 13 13 13 14 13 13 13 12 12 11 10 12 12 13 15 13 12 14 13 12 12 12
8 2 5 6 7 6 6 5 5 7 2 2 4 3 5 4 2 6 12 11 11 9 11 9 8 9 12 12 12 13 13 12 12 13 12 12 11 11 12 12 13 14 12 11 12 12 12 11 11
8 4 6 5 5 2 3 3 4 6 5 4 3 0 2 4 4 9 12 10 10 9 10 10 9 8 10 12 12 13 13 13 12 12 12 11 10 9 13 13 12 13 12 11 10 10 10 10 9
8 4 8 8 3 3 2 3 5 7 3 3 4 4 4 6 9 10 10 10 10 9 9 10 8 8 10 10 12 13 13 13 13 13 11 10 10 8 12 12 11 11 10 10 10 9 9 8 8
10 9 11 6 8 7 4 3 6 6 4 4 3 4 5 8 7 12 10 9 9 10 8 9 11 10 8 8 9 10 11 11 12 12 11 10 8 7 8 9 9 8 9 9 9 9 8 7 7
5 8 15 10 9 7 4 3 4 5 4 4 2 3 1 11 11 11 9 8 9 9 8 9 10 11 11 10 8 8 9 9 9 10 9 9 9 8 7 6 7 8 8 7 7 7 6 6 6
2 7 12 14 11 8 6 6 6 3 7 5 4 3 5 14 13 10 10 9 9 9 9 9 9 7 9 11 9 7 7 8 9 9 8 9 7 8 9 7 7 7 7 7 6 5 5 6 5
8 9 14 14 9 7 8 8 5 5 9 9 7 5 6 13 14 14 13 11 11 11 12 10 11 9 9 9 11 10 9 8 9 9 10 6 6 5 6 6 5 6 6 6 5 4 5 7 5
7 14 11 8 11 9 8 7 8 6 10 10 8 12 11 13 14 14 14 13 14 13 11 12 11 12 12 9 9 6 6 5 6 9 9 6 5 4 4 5 4 5 5 5 5 5 6 3 3
10 13 14 9 4 6 10 11 8 11 11 4 3 5 13 15 15 16 16 15 14 14 14 13 13 12 12 7 7 7 6 6 6 7 9 6 4 5 5 5 6 5 5 4 4 3 3 4 3
12 15 9 13 10 10 11 12 15 12 10 9 6 6 12 13 16 15 15 14 13 15 15 14 13 12 11 10 8 7 7 7 8 7 8 7 7 6 6 5 5 5 5 5 4 4 4 4 4
8 11 17 14 12 10 10 16 16 10 14 11 11 12 12 15 16 15 16 16 15 14 15 14 14 12 12 11 10 7 7 8 7 7 8 10 6 6 6 5 6 6 5 5 5 5 4 4 4
11 15 16 17 15 13 8 19 23 15 14 13 12 12 13 14 14 18 17 17 17 14 14 15 15 14 14 13 10 8 7 7 7 7 9 10 9 7 7 6 6 6 6 6 5 5 5 5 5
15 18 19 19 17 15 10 24 17 19 20 21 19 15 13 15 16 16 16 16 17 15 16 16 13 15 15 13 10 8 8 8 8 8 8 11 11 10 8 6 6 6 6 6 6 6 5 5 5
20 17 22 20 17 15 17 19 16 22 17 18 19 21 16 14 15 17 18 17 18 18 17 17 16 16 16 13 10 10 11 8 8 8 7 11 11 11 9 7 6 7 5 6 6 6 6 5 5
15 22 20 21 15 17 20 24 19 18 10 18 20 19 19 19 18 18 18 18 18 19 19 18 15 17 16 11 10 9 8 8 8 8 8 12 10 12 9 7 8 6 6 6 6 7 5 5 5
20 16 22 19 19 14 17 21 22 22 22 21 21 18 21 22 19 17 15 17 18 18 18 19 18 18 13 11 10 9 10 9 8 9 11 12 11 12 11 7 9 8 8 8 8 7 7 6 5
21 23 23 16 13 12 18 25 22 22 23 21 23 23 22 20 18 18 19 17 18 18 18 18 19 19 16 12 11 10 10 9 9 9 10 12 13 12 11 11 9 10 7 9 8 8 6 6 5
23 24 23 19 8 11 16 24 23 25 25 23 24 23 23 23 22 20 18 19 18 19 19 19 20 19 18 16 10 10 8 8 9 10 10 12 14 14 13 13 10 9 9 8 9 9 10 7 6
24 28 20 17 7 10 13 18 21 16 24 25 24 23 23 24 22 19 17 19 20 19 19 19 19 20 18 18 14 16 13 12 10 11 10 10 15 15 14 13 12 11 8 9 9 9 9 9 8
21 19 20 21 19 18 20 12 24 15 25 26 23 19 21 22 21 22 22 18 18 17 18 19 20 21 21 20 19 14 14 11 10 10 12 14 12 15 15 14 14 12 10 11 10 9 10 8 9
16 15 10 16 15 13 28 22 22 19 28 22 21 21 20 20 18 20 21 19 18 18 18 18 21 21 20 20 22 21 19 16 12 13 11 10 10 10 14 14 13 13 12 11 11 13 13 11 9
16 12 6 8 8 12 26 15 22 25 21 22 22 21 18 13 17 17 18 17 17 19 18 17 19 20 20 21 21 23 23 21 20 16 13 12 10 10 13 15 14 12 12 14 11 11 10 9 9
18 17 7 11 13 16 12 11 20 22 24 27 25 22 13 13 14 7 10 13 16 18 17 18 18 19 19 20 21 20 21 13 14 15 11 11 10 11 13 13 13 14 13 12 12 8 7 7 7
16 16 16 9 4 3 1 13 20 20 16 13 18 20 17 17 15 14 12 13 16 15 15 17 19 19 19 21 20 20 18 19 16 17 14 11 12 10 12 13 13 13 13 13 12 8 8 8 9
16 8 9 5 6 12 12 16 12 5 11 15 18 15 13 11 11 11 10 11 12 13 14 14 16 19 19 18 18 17 18 17 16 13 15 14 12 12 11 12 13 13 13 12 12 9 8 9 7
12 7 4 1 4 7 8 13 11 9 7 8 10 11 12 12 10 8 7 7 8 10 9 10 14 15 15 16 16 17 16 16 15 14 13 14 12 12 12 12 12 12 12 11 12 9 8 9 8
23 21 16 3 6 3 2 12 6 5 7 5 6 8 9 9 8 8 8 6 6 8 6 7 10 11 12 12 14 16 16 15 16 15 15 13 13 12 12 12 12 12 11 10 12 11 7 9 9
Wind_Direction
301 334 317 256 256 249 61 81 40 104 138 71 95 322 5 11 10 40 134 120 125 124 119 137 120 129 127 116 115 103 106 103 102 98 97 100 101 96 90 82 92 90 87 89 90 87 88 87 87
307 335 248 289 287 320 75 82 124 89 58 121 135 262 267 73 59 110 141 154 136 136 125 132 124 133 128 128 124 120 117 111 107 104 102 101 108 94 93 91 98 96 90 98 92 92 94 93 91
276 297 301 314 301 21 23 72 115 100 109 200 170 258 3 50 67 140 97 152 138 139 122 110 129 141 136 133 127 126 121 121 115 114 111 113 117 90 90 80 97 95 91 94 95 96 98 97 95
309 265 207 275 355 57 2 43 115 148 160 247 321 184 122 41 66 117 137 147 142 142 131 128 132 151 141 140 136 130 124 123 122 116 115 115 120 101 98 83 103 96 98 95 98 103 103 100 98
257 243 272 256 304 18 13 10 172 180 139 176 204 328 79 107 114 122 143 157 141 147 132 148 134 141 143 148 144 133 130 126 119 114 115 124 126 103 102 95 93 100 99 103 106 104 101 101 99
280 279 252 254 349 29 11 352 207 201 141 114 223 258 87 106 157 139 168 157 147 147 151 134 141 144 141 148 145 137 134 130 126 123 124 119 127 106 101 99 82 90 106 108 110 107 104 101 102
281 258 261 273 269 284 41 344 223 210 196 213 349 255 77 163 142 156 172 153 159 144 163 158 161 153 131 137 141 134 136 139 136 131 129 121 107 89 78 107 113 110 113 111 110 111 115 113 105
283 297 268 234 246 243 109 167 338 269 219 62 286 299 72 153 153 171 161 165 172 155 175 173 152 169 158 149 103 121 132 139 140 127 117 113 107 103 96 103 109 113 112 113 116 116 120 121 113
254 263 261 248 241 236 155 177 142 1 262 225 179 305 40 124 158 158 168 188 174 169 177 183 145 163 149 151 137 133 130 126 127 126 133 155 138 154 164 80 110 119 117 113 107 122 126 136 134
243 236 257 295 284 251 188 183 171 207 215 229 212 134 136 144 167 175 183 185 187 191 181 186 170 176 166 163 161 165 160 169 175 171 173 188 155 127 127 115 116 117 118 108 117 130 178 211 180
231 248 249 290 304 306 233 217 169 212 252 246 235 195 174 173 184 191 202 199 193 192 184 188 189 185 181 183 182 183 185 187 184 185 193 173 153 157 168 147 168 168 192 187 189 183 218 238 277
255 246 267 263 266 277 267 270 221 212 237 74 28 290 169 191 200 201 204 206 192 195 196 192 191 192 192 190 201 195 191 192 193 197 190 184 184 183 190 191 188 191 185 206 214 218 251 246 253
241 256 255 262 260 246 273 267 257 229 234 215 206 214 190 207 210 212 211 212 197 201 196 196 195 195 194 201 199 208 204 198 195 196 195 204 201 196 198 199 195 200 193 211 216 231 227 233 250
257 255 255 251 250 244 255 263 253 244 246 228 204 210 212 211 211 211 216 213 207 204 198 196 197 198 197 196 203 199 203 191 202 197 200 206 210 199 207 204 207 208 206 212 230 234 231 236 240
260 253 253 240 236 250 266 257 255 257 264 230 212 215 213 215 215 214 215 213 209 206 199 197 198 200 203 202 201 204 202 206 202 204 202 201 207 207 211 210 209 210 206 226 229 234 240 252 245
233 241 251 241 232 236 241 259 252 248 238 244 243 224 214 219 216 218 216 215 209 207 205 199 200 200 206 201 199 202 201 204 205 204 203 204 204 210 206 214 215 213 213 216 227 231 234 239 252
227 241 234 252 241 232 216 266 255 254 265 257 252 246 223 218 216 218 213 213 210 206 202 202 200 200 207 205 202 203 206 203 207 207 204 204 208 210 212 213 216 210 217 224 234 234 242 255 250
221 233 244 256 229 212 240 257 259 263 257 263 253 254 245 221 220 215 212 209 207 208 206 202 199 202 201 206 208 201 203 205 208 207 207 208 205 208 213 216 215 209 210 222 222 239 238 250 267
238 230 243 240 242 242 255 260 259 253 254 252 257 263 255 239 223 218 205 205 210 208 208 205 200 202 196 198 202 206 206 202 207 209 207 207 208 206 212 218 217 212 216 220 223 226 236 238 240
243 254 252 262 256 246 254 260 263 255 257 255 254 253 250 252 239 225 209 199 200 209 205 207 204 199 204 197 200 207 208 204 208 208 208 208 207 208 207 210 216 215 212 221 225 219 231 235 240
228 237 241 246 271 258 262 268 265 261 262 255 251 254 255 253 252 233 220 210 203 201 206 206 205 203 203 204 197 200 214 208 204 212 209 208 208 206 207 211 215 213 214 216 217 220 216 236 216
233 229 245 256 268 248 241 276 270 265 255 243 238 240 246 244 243 256 245 208 210 208 205 206 207 203 203 198 203 200 202 204 208 204 210 205 207 210 209 212 212 217 213 216 224 219 222 216 238
239 239 233 238 242 260 260 265 270 256 261 254 256 247 248 244 241 238 237 243 214 207 210 204 205 206 204 197 199 203 208 211 199 213 208 208 205 208 209 208 212 214 215 219 218 222 224 226 228
225 230 256 246 244 246 248 238 261 247 250 264 261 252 253 243 238 245 236 232 223 201 208 212 207 208 206 203 199 201 203 207 205 212 210 206 204 205 210 211 212 213 215 218 221 228 228 223 231
219 217 209 221 234 236 237 238 243 268 247 251 260 257 252 247 253 238 240 237 239 222 210 211 211 211 207 206 205 204 207 207 211 210 213 199 202 202 204 208 211 212 214 219 220 227 225 220 220
207 192 213 222 217 240 225 228 236 242 248 248 260 270 267 258 264 256 252 246 240 235 220 207 208 211 207 205 210 211 213 211 211 213 210 214 208 207 198 205 215 210 211 217 220 218 217 210 214
200 214 238 267 157 296 243 269 276 269 255 254 253 258 258 256 241 242 236 238 249 237 230 210 211 213 210 207 209 212 213 214 213 210 208 212 210 210 207 198 202 210 206 206 210 214 208 202 209
226 161 189 197 227 225 210 246 252 262 260 250 249 267 280 266 264 261 254 245 244 244 237 224 220 219 212 212 209 211 212 211 214 212 208 207 208 210 204 202 201 203 208 204 208 207 194 205 207
203 204 175 80 251 247 272 260 287 281 337 317 346 0 338 330 325 330 285 283 272 250 222 234 227 225 225 218 214 209 208 207 206 208 209 207 201 201 202 208 202 205 205 201 209 204 192 203 209
221 224 215 203 190 227 271 260 351 2 29 24 356 335 331 315 334 325 309 299 281 256 254 237 238 222 220 220 222 216 209 203 198 201 205 200 198 199 202 198 203 203 205 199 202 205 189 195 202